Volver al catálogo

COSMOS 1809

ActivoNavegaciónPO
NORAD 17241·PAYLOAD·🇷🇺 Russia

Lanzado Dec 18, 1986 desde Plesetsk Cosmodrome

Loading…

Próximos Pases (próximas 24 horas)

TLE

ActualizadoSource: Space-Track

Época: Sep 14, 2026, 15:12 UTC

1 17241U 86101A   26257.63401208  .00000045  00000-0  27208-4 0  9999
2 17241  82.5309 209.3923 0013973 270.4973 263.4902 13.84501826  7143

Sigue COSMOS 1809 en tiempo real con AllMySat

Download on the App Store